EW4723 Weather Reports


Display with metric or nautical units.
time (UTC)temp
F
wind
direction
speed
MPH
gust
MPH
rain 1hr
in
rain 24hr
in
rain mn
in
humidity
%
barometer
mb
20260505022347 60 17 3.0 9.0 0.00 0.00 0.00 70 1008.2
20260505021845 60 335 3.0 9.0 0.00 0.00 0.00 69 1008.2
20260505021459 60 304 3.0 10.0 0.00 0.00 0.00 68 1008.4
20260505021435 60 309 3.0 10.0 0.00 0.00 0.00 68 1008.2
20260505020344 61 327 3.0 9.0 0.00 0.00 0.00 69 1008.4
20260505015843 61 323 3.0 9.0 0.00 0.00 0.00 68 1008.3
20260505015344 61 188 3.0 9.0 0.00 0.00 0.00 68 1008.5
20260505014837 61 282 3.0 9.0 0.00 0.00 0.00 68 1008.4
20260505014332 62 271 2.0 9.0 0.00 0.00 0.00 67 1008.5
20260505013826 62 25 2.0 13.0 0.00 0.00 0.00 66 1008.5
20260505013610 63 34 3.0 13.0 0.00 0.00 0.00 65 1008.6
20260505013102 63 23 2.0 11.0 0.00 0.00 0.00 63 1008.6
20260505012308 64 110 2.0 9.0 0.00 0.00 0.00 63 1008.6
20260505011803 64 20 2.0 9.0 0.00 0.00 0.00 63 1008.7
20260505011256 64 13 2.0 6.0 0.00 0.00 0.00 64 1008.9
20260505010750 64 338 2.0 8.0 0.00 0.00 0.00 63 1008.9
20260505010245 64 333 2.0 8.0 0.00 0.00 0.00 63 1008.9
20260505005748 65 24 2.0 8.0 0.00 0.00 0.00 63 1009.0
20260505005529 65 316 2.0 8.0 0.00 0.00 0.00 66 1008.9
20260505004726 64 345 1.0 7.0 0.00 0.00 0.00 65 1009.0
20260505004221 64 271 1.0 6.0 0.00 0.00 0.00 65 1008.9
20260505003715 64 261 2.0 6.0 0.00 0.00 0.00 67 1009.0
20260505003208 64 11 2.0 5.0 0.00 0.00 0.00 68 1009.1
20260505002702 63 259 3.0 6.0 0.00 0.00 0.00 67 1009.0
20260505002159 63 300 3.0 8.0 0.00 0.00 0.00 67 1009.0
20260505001956 64 297 3.0 9.0 0.00 0.00 0.00 66 1009.0
20260505001157 64 112 2.0 9.0 0.00 0.00 0.00 66 1009.0
20260505000659 65 309 2.0 4.0 0.00 0.00 0.00 64 1009.0
20260505000159 65 269 2.0 5.0 0.00 0.00 0.00 65 1009.0
20260504235656 65 0 2.0 6.0 0.00 0.00 0.00 64 1009.0
20260504235155 65 9 2.0 9.0 0.00 0.00 0.00 63 1009.0
20260504234657 65 301 2.0 9.0 0.00 0.00 0.00 63 1009.0
20260504234154 66 350 1.0 5.0 0.00 0.00 0.00 68 1009.0
20260504233651 66 265 1.0 6.0 0.00 0.00 0.00 66 1008.9
20260504233151 65 298 2.0 6.0 0.00 0.00 0.00 64 1008.9
20260504232652 65 281 2.0 7.0 0.00 0.00 0.00 65 1008.9
20260504232150 64 342 3.0 9.0 0.00 0.00 0.00 66 1009.0
20260504231647 64 338 3.0 9.0 0.00 0.00 0.00 65 1009.1
20260504231148 64 294 3.0 8.0 0.00 0.00 0.00 64 1009.0
20260504230649 63 276 3.0 10.0 0.00 0.00 0.00 65 1009.1
20260504230147 64 32 3.0 10.0 0.00 0.00 0.00 64 1009.2
20260504225948 65 345 3.0 9.0 0.00 0.00 0.00 63 1009.2
20260504225148 64 280 3.0 9.0 0.00 0.00 0.00 63 1009.3
20260504224646 65 333 3.0 9.0 0.00 0.00 0.00 62 1009.4
20260504224144 64 276 3.0 9.0 0.00 0.00 0.00 63 1009.3
20260504223645 64 26 3.0 8.0 0.00 0.00 0.00 62 1009.4
20260504223441 64 313 3.0 9.0 0.00 0.00 0.00 62 1009.3
20260504222645 66 38 2.0 9.0 0.00 0.00 0.00 60 1009.3
20260504222145 66 296 2.0 6.0 0.00 0.00 0.00 59 1009.5
20260504221944 66 265 3.0 9.0 0.00 0.00 0.00 60 1009.5
20260504221145 66 339 2.0 9.0 0.00 0.00 0.00 59 1009.6
20260504220937 66 288 2.0 8.0 0.00 0.00 0.00 58 1009.5
20260504220144 67 169 3.0 7.0 0.00 0.00 0.00 57 1009.4
20260504215643 67 275 2.0 7.0 0.00 0.00 0.00 56 1009.4
20260504215144 69 332 1.0 4.0 0.00 0.00 0.00 55 1009.4
20260504214641 68 305 1.0 8.0 0.00 0.00 0.00 54 1009.5
20260504214141 68 90 2.0 8.0 0.00 0.00 0.00 55 1009.6
20260504214010 67 297 2.0 7.0 0.00 0.00 0.00 56 1009.7
20260504213711 68 331 2.0 5.0 0.00 0.00 0.00 54 1009.6
20260504212639 66 245 3.0 7.0 0.00 0.00 0.00 55 1009.7
20260504212139 66 329 2.0 6.0 0.00 0.00 0.00 59 1009.8
20260504211640 66 10 2.0 7.0 0.00 0.00 0.00 55 1009.7
20260504211140 67 0 2.0 7.0 0.00 0.00 0.00 53 1009.7
20260504210640 68 304 1.0 6.0 0.00 0.00 0.00 59 1009.7
20260504210138 67 339 2.0 8.0 0.00 0.00 0.00 55 1009.8
20260504205640 67 355 2.0 8.0 0.00 0.00 0.00 54 1009.8
20260504205140 69 265 1.0 4.0 0.00 0.00 0.00 57 1009.8
20260504204639 71 267 1.0 4.0 0.00 0.00 0.00 54 1009.7
20260504204140 72 301 1.0 3.0 0.00 0.00 0.00 49 1009.7
20260504203639 73 35 2.0 7.0 0.00 0.00 0.00 51 1009.7
20260504203430 72 29 2.0 7.0 0.00 0.00 0.00 49 1009.7
20260504202638 71 267 3.0 8.0 0.00 0.00 0.00 47 1009.7
20260504202139 72 276 2.0 8.0 0.00 0.00 0.00 51 1009.7
20260504201638 73 271 1.0 6.0 0.00 0.00 0.00 47 1009.7
20260504201437 72 256 1.0 4.0 0.00 0.00 0.00 51 1009.7
20260504200639 72 28 1.0 4.0 0.00 0.00 0.00 53 1009.7
20260504200139 70 304 2.0 7.0 0.00 0.00 0.00 54 1009.7
20260504195638 70 294 1.0 7.0 0.00 0.00 0.00 49 1009.7
20260504195429 71 277 1.0 4.0 0.00 0.00 0.00 51 1009.7
20260504194636 72 313 1.0 2.0 0.00 0.00 0.00 49 1009.7
20260504194131 71 268 1.0 4.0 0.00 0.00 0.00 51 1009.7
20260504193630 71 267 1.0 6.0 0.00 0.00 0.00 52 1009.7
20260504193128 70 202 1.0 6.0 0.00 0.00 0.00 52 1009.7
20260504192628 70 22 1.0 6.0 0.00 0.00 0.00 57 1009.8
20260504192128 70 271 1.0 6.0 0.00 0.00 0.00 54 1009.8
20260504191627 69 286 1.0 4.0 0.00 0.00 0.00 54 1009.9
20260504191126 70 286 1.0 3.0 0.00 0.00 0.00 55 1009.8
20260504190624 71 323 1.0 3.0 0.00 0.00 0.00 54 1009.7
20260504190123 71 276 1.0 6.0 0.00 0.00 0.00 54 1009.7
20260504185623 71 277 1.0 6.0 0.00 0.00 0.00 54 1009.7
20260504185416 70 295 1.0 5.0 0.00 0.00 0.00 53 1009.7
20260504184918 69 267 1.0 5.0 0.00 0.00 0.00 52 1009.7
20260504184111 69 22 0.0 4.0 0.00 0.00 0.00 55 1009.8
20260504183851 69 299 1.0 4.0 0.00 0.00 0.00 54 1009.8
20260504183059 68 250 0.0 4.0 0.00 0.00 0.00 58 1009.8
20260504182554 67 321 0.0 2.0 0.00 0.00 0.00 56 1009.9
20260504182048 66 322 1.0 4.0 0.00 0.00 0.00 56 1009.9
20260504181541 66 312 1.0 4.0 0.00 0.00 0.00 57 1010.0
20260504181035 65 306 0.0 2.0 0.00 0.00 0.00 57 1010.0
20260504180824 66 310 0.0 1.0 0.00 0.00 0.00 58 1010.0
20260504180023 66 310 0.0 2.0 0.00 0.00 0.00 60 1010.0
20260504175517 66 330 0.0 2.0 0.00 0.00 0.00 63 1010.0
20260504175011 65 265 0.0 1.0 0.00 0.00 0.00 63 1009.9
20260504174505 65 265 0.0 3.0 0.00 0.00 0.00 62 1009.9
20260504173959 65 265 1.0 6.0 0.00 0.00 0.00 61 1009.8
20260504173452 65 254 1.0 6.0 0.00 0.00 0.00 59 1009.9
20260504172947 65 281 1.0 5.0 0.00 0.00 0.00 61 1009.8
20260504172441 64 329 2.0 5.0 0.00 0.00 0.00 60 1009.8
20260504171936 64 312 1.0 5.0 0.00 0.00 0.00 61 1009.8
20260504171429 63 344 1.0 6.0 0.00 0.00 0.00 62 1009.8
20260504170923 63 280 1.0 6.0 0.00 0.00 0.00 64 1009.8
20260504170417 63 287 0.0 4.0 0.00 0.00 0.00 64 1009.9
20260504160305 61 295 0.0 3.0 0.00 0.00 0.00 67 1009.7
20260504151017 59 273 1.0 3.0 0.00 0.00 0.00 68 1009.3
20260504150228 58 329 0.0 2.0 0.00 0.00 0.00 69 1009.4
20260504141218 53 304 0.0 2.0 0.00 0.00 0.00 79 1008.8
20260504140720 53 304 0.0 2.0 0.00 0.00 0.00 79 1008.8
20260504140214 54 304 0.0 3.0 0.00 0.00 0.00 79 1008.8
20260504130653 49 270 0.0 0.0 0.00 0.00 0.00 87 1008.5
20260504130444 49 270 0.0 0.0 0.00 0.00 0.00 88 1008.4
20260504120147 48 270 0.0 0.0 0.00 0.00 0.00 88 1008.5
20260504110629 49 270 0.0 0.0 0.00 0.00 0.00 86 1008.6
20260504110128 49 270 0.0 0.0 0.00 0.00 0.00 86 1008.6
20260504100526 50 270 0.0 0.0 0.00 0.00 0.00 82 1008.5
20260504100313 50 270 0.0 0.0 0.00 0.00 0.00 81 1008.5
20260504081847 53 270 0.0 0.0 0.00 0.00 0.00 71 1008.2
20260504081344 53 270 0.0 0.0 0.00 0.00 0.00 71 1008.2
20260504080841 54 270 0.0 0.0 0.00 0.00 0.00 70 1008.2
20260504080342 54 270 0.0 0.0 0.00 0.00 0.00 70 1008.2
20260504080131 54 270 0.0 0.0 0.00 0.00 0.00 70 1008.2
20260504070331 57 270 0.0 3.0 0.00 0.00 0.00 69 1008.3
20260504060220 58 316 1.0 4.0 0.00 0.00 0.00 59 1008.5
20260504050209 59 290 0.0 0.0 0.00 0.00 0.00 64 1008.7
20260504045707 59 290 0.0 2.0 0.00 0.00 0.00 64 1008.7
20260504045209 60 290 0.0 2.0 0.00 0.00 0.00 64 1008.6
20260504044708 60 334 0.0 0.0 0.00 0.00 0.00 61 1008.7
20260504044208 60 334 0.0 2.0 0.00 0.00 0.00 61 1008.7
20260504043958 60 334 0.0 2.0 0.00 0.00 0.00 60 1008.7
20260504043204 60 334 0.0 2.0 0.00 0.00 0.00 57 1008.7
20260504042704 60 334 0.0 0.0 0.00 0.00 0.00 59 1008.7
20260504042203 61 334 0.0 0.0 0.00 0.00 0.00 60 1008.6
20260504041704 61 334 0.0 0.0 0.00 0.00 0.00 59 1008.6
20260504041204 61 334 0.0 0.0 0.00 0.00 0.00 58 1008.6
20260504040702 61 334 0.0 0.0 0.00 0.00 0.00 59 1008.6
20260504040203 61 334 0.0 1.0 0.00 0.00 0.00 59 1008.6
20260504035949 61 334 0.0 1.0 0.00 0.00 0.00 62 1008.6
20260504035200 62 334 0.0 0.0 0.00 0.00 0.00 57 1008.5
20260504034701 62 334 0.0 0.0 0.00 0.00 0.00 55 1008.5
20260504034200 63 334 0.0 0.0 0.00 0.00 0.00 53 1008.4
20260504033701 63 334 0.0 0.0 0.00 0.00 0.00 53 1008.5
20260504033157 63 334 0.0 0.0 0.00 0.00 0.00 53 1008.4
20260504032655 63 334 0.0 0.0 0.00 0.00 0.00 54 1008.4
20260504032158 63 334 0.0 0.0 0.00 0.00 0.00 53 1008.4
20260504031951 64 334 0.0 0.0 0.00 0.00 0.00 53 1008.4
20260504031157 65 334 0.0 0.0 0.00 0.00 0.00 52 1008.4
20260504030659 66 334 0.0 0.0 0.00 0.00 0.00 51 1008.4
20260504030158 67 334 0.0 0.0 0.00 0.00 0.00 51 1008.4
20260504025940 67 334 0.0 0.0 0.00 0.00 0.00 48 1008.4
20260504025158 67 334 0.0 0.0 0.00 0.00 0.00 49 1008.5
20260504024951 67 334 0.0 0.0 0.00 0.00 0.00 50 1008.5
20260504024155 68 334 0.0 0.0 0.00 0.00 0.00 48 1008.6
20260504023656 68 334 0.0 0.0 0.00 0.00 0.00 50 1008.6
20260504023156 68 334 0.0 0.0 0.00 0.00 0.00 50 1008.7
20260504022941 69 334 0.0 0.0 0.00 0.00 0.00 48 1008.7